owner,sensor,date,latitude,longitude,sea_surface_height_above_sea_level,qcFlag 
TCOON,ioos:station:TCOON:518:1,2015-06-01T00:12:00Z,29.5150,-94.5133,1.533,1111122 
TCOON,ioos:station:TCOON:518:1,2015-06-01T01:12:00Z,29.5150,-94.5133,1.444,1111122 
TCOON,ioos:station:TCOON:518:1,2015-06-01T02:12:00Z,29.5150,-94.5133,1.389,1111122 
TCOON,ioos:station:TCOON:518:1,2015-06-01T03:12:00Z,29.5150,-94.5133,1.32,1111122 
TCOON,ioos:station:TCOON:518:1,2015-06-01T04:12:00Z,29.5150,-94.5133,1.3,1111122 
TCOON,ioos:station:TCOON:518:1,2015-06-01T05:18:00Z,29.5150,-94.5133,1.273,1111122 
TCOON,ioos:station:TCOON:518:1,2015-06-01T06:24:00Z,29.5150,-94.5133,1.255,1111122 
TCOON,ioos:station:TCOON:518:1,2015-06-01T07:30:00Z,29.5150,-94.5133,1.28,1111122 
TCOON,ioos:station:TCOON:518:1,2015-06-01T08:12:00Z,29.5150,-94.5133,1.315,1111122 
TCOON,ioos:station:TCOON:518:1,2015-06-01T09:12:00Z,29.5150,-94.5133,1.398,1111122 
TCOON,ioos:station:TCOON:518:1,2015-06-01T10:12:00Z,29.5150,-94.5133,1.468,1111122 
TCOON,ioos:station:TCOON:518:1,2015-06-01T11:12:00Z,29.5150,-94.5133,1.541,1111122 
TCOON,ioos:station:TCOON:518:1,2015-06-01T12:12:00Z,29.5150,-94.5133,1.552,1111122 
TCOON,ioos:station:TCOON:518:1,2015-06-01T13:12:00Z,29.5150,-94.5133,1.558,1111122 
TCOON,ioos:station:TCOON:518:1,2015-06-01T14:24:00Z,29.5150,-94.5133,1.558,1111122 
TCOON,ioos:station:TCOON:518:1,2015-06-01T15:12:00Z,29.5150,-94.5133,1.565,1111122 
TCOON,ioos:station:TCOON:518:1,2015-06-01T16:12:00Z,29.5150,-94.5133,1.587,1111122 
TCOON,ioos:station:TCOON:518:1,2015-06-01T17:12:00Z,29.5150,-94.5133,1.593,1111122 
TCOON,ioos:station:TCOON:518:1,2015-06-01T18:12:00Z,29.5150,-94.5133,1.571,1111122 
TCOON,ioos:station:TCOON:518:1,2015-06-01T19:12:00Z,29.5150,-94.5133,1.571,1111122 
TCOON,ioos:station:TCOON:518:1,2015-06-01T20:12:00Z,29.5150,-94.5133,1.576,1111122 
TCOON,ioos:station:TCOON:518:1,2015-06-01T21:12:00Z,29.5150,-94.5133,1.548,1111122 
TCOON,ioos:station:TCOON:518:1,2015-06-01T22:42:00Z,29.5150,-94.5133,1.501,1111122 
TCOON,ioos:station:TCOON:518:1,2015-06-01T23:18:00Z,29.5150,-94.5133,1.501,1111122 
TCOON,ioos:station:TCOON:518:1,2015-06-02T00:12:00Z,29.5150,-94.5133,1.452,1111122 
TCOON,ioos:station:TCOON:518:1,2015-06-02T01:12:00Z,29.5150,-94.5133,1.388,1111122 
TCOON,ioos:station:TCOON:518:1,2015-06-02T02:12:00Z,29.5150,-94.5133,1.311,1111122 
TCOON,ioos:station:TCOON:518:1,2015-06-02T03:12:00Z,29.5150,-94.5133,1.271,1111122 
TCOON,ioos:station:TCOON:518:1,2015-06-02T04:12:00Z,29.5150,-94.5133,1.196,1111122 
TCOON,ioos:station:TCOON:518:1,2015-06-02T05:18:00Z,29.5150,-94.5133,1.206,1111122 
TCOON,ioos:station:TCOON:518:1,2015-06-02T07:12:00Z,29.5150,-94.5133,1.192,1111122 
TCOON,ioos:station:TCOON:518:1,2015-06-02T08:18:00Z,29.5150,-94.5133,1.249,1111122 
TCOON,ioos:station:TCOON:518:1,2015-06-02T09:12:00Z,29.5150,-94.5133,1.322,1111122 
TCOON,ioos:station:TCOON:518:1,2015-06-02T10:12:00Z,29.5150,-94.5133,1.394,1111122 
TCOON,ioos:station:TCOON:518:1,2015-06-02T11:18:00Z,29.5150,-94.5133,1.473,1111122 
TCOON,ioos:station:TCOON:518:1,2015-06-02T12:12:00Z,29.5150,-94.5133,1.524,1111122 
TCOON,ioos:station:TCOON:518:1,2015-06-02T13:12:00Z,29.5150,-94.5133,1.549,1111122 
TCOON,ioos:station:TCOON:518:1,2015-06-02T14:12:00Z,29.5150,-94.5133,1.574,1111122 
TCOON,ioos:station:TCOON:518:1,2015-06-02T15:12:00Z,29.5150,-94.5133,1.582,1111122 
TCOON,ioos:station:TCOON:518:1,2015-06-02T16:12:00Z,29.5150,-94.5133,1.601,1111122 
TCOON,ioos:station:TCOON:518:1,2015-06-02T17:12:00Z,29.5150,-94.5133,1.62,1111122 
TCOON,ioos:station:TCOON:518:1,2015-06-02T18:12:00Z,29.5150,-94.5133,1.637,1111122 
TCOON,ioos:station:TCOON:518:1,2015-06-02T19:18:00Z,29.5150,-94.5133,1.6,1111122 
TCOON,ioos:station:TCOON:518:1,2015-06-02T20:12:00Z,29.5150,-94.5133,1.563,1111122 
TCOON,ioos:station:TCOON:518:1,2015-06-02T21:12:00Z,29.5150,-94.5133,1.558,1111122 
TCOON,ioos:station:TCOON:518:1,2015-06-02T22:18:00Z,29.5150,-94.5133,1.519,1111122 
TCOON,ioos:station:TCOON:518:1,2015-06-02T23:18:00Z,29.5150,-94.5133,1.486,1111122 
TCOON,ioos:station:TCOON:518:1,2015-06-03T00:12:00Z,29.5150,-94.5133,1.434,1111122 
TCOON,ioos:station:TCOON:518:1,2015-06-03T01:12:00Z,29.5150,-94.5133,1.362,1111122 
TCOON,ioos:station:TCOON:518:1,2015-06-03T02:12:00Z,29.5150,-94.5133,1.294,1111122 
TCOON,ioos:station:TCOON:518:1,2015-06-03T03:12:00Z,29.5150,-94.5133,1.236,1111122 
TCOON,ioos:station:TCOON:518:1,2015-06-03T04:12:00Z,29.5150,-94.5133,1.204,1111122 
TCOON,ioos:station:TCOON:518:1,2015-06-03T05:12:00Z,29.5150,-94.5133,1.198,1111122 
TCOON,ioos:station:TCOON:518:1,2015-06-03T07:12:00Z,29.5150,-94.5133,1.134,1111122 
TCOON,ioos:station:TCOON:518:1,2015-06-03T08:12:00Z,29.5150,-94.5133,1.166,1111122 
TCOON,ioos:station:TCOON:518:1,2015-06-03T09:12:00Z,29.5150,-94.5133,1.245,1111122 
TCOON,ioos:station:TCOON:518:1,2015-06-03T10:12:00Z,29.5150,-94.5133,1.318,1111122 
TCOON,ioos:station:TCOON:518:1,2015-06-03T11:12:00Z,29.5150,-94.5133,1.412,1111122 
TCOON,ioos:station:TCOON:518:1,2015-06-03T12:12:00Z,29.5150,-94.5133,1.487,1111122 
TCOON,ioos:station:TCOON:518:1,2015-06-03T13:18:00Z,29.5150,-94.5133,1.546,1111122 
TCOON,ioos:station:TCOON:518:1,2015-06-03T14:12:00Z,29.5150,-94.5133,1.537,1111122 
TCOON,ioos:station:TCOON:518:1,2015-06-03T15:12:00Z,29.5150,-94.5133,1.608,1111122 
TCOON,ioos:station:TCOON:518:1,2015-06-03T16:12:00Z,29.5150,-94.5133,1.604,1111122 
TCOON,ioos:station:TCOON:518:1,2015-06-03T17:12:00Z,29.5150,-94.5133,1.624,1111122 
TCOON,ioos:station:TCOON:518:1,2015-06-03T18:12:00Z,29.5150,-94.5133,1.619,1111122 
TCOON,ioos:station:TCOON:518:1,2015-06-03T19:12:00Z,29.5150,-94.5133,1.596,1111122 
TCOON,ioos:station:TCOON:518:1,2015-06-03T20:18:00Z,29.5150,-94.5133,1.55,1111122 
TCOON,ioos:station:TCOON:518:1,2015-06-03T21:18:00Z,29.5150,-94.5133,1.516,1111122 
TCOON,ioos:station:TCOON:518:1,2015-06-03T22:12:00Z,29.5150,-94.5133,1.524,1111122 
TCOON,ioos:station:TCOON:518:1,2015-06-03T23:12:00Z,29.5150,-94.5133,1.465,1111122 
TCOON,ioos:station:TCOON:518:1,2015-06-04T00:12:00Z,29.5150,-94.5133,1.476,1111122 
TCOON,ioos:station:TCOON:518:1,2015-06-04T01:12:00Z,29.5150,-94.5133,1.428,1111122 
TCOON,ioos:station:TCOON:518:1,2015-06-04T02:12:00Z,29.5150,-94.5133,1.37,1111122 
TCOON,ioos:station:TCOON:518:1,2015-06-04T03:12:00Z,29.5150,-94.5133,1.309,1111122 
TCOON,ioos:station:TCOON:518:1,2015-06-04T04:12:00Z,29.5150,-94.5133,1.247,1111122 
TCOON,ioos:station:TCOON:518:1,2015-06-04T05:12:00Z,29.5150,-94.5133,1.203,1111122 
TCOON,ioos:station:TCOON:518:1,2015-06-04T07:12:00Z,29.5150,-94.5133,1.123,1111122 
TCOON,ioos:station:TCOON:518:1,2015-06-04T08:12:00Z,29.5150,-94.5133,1.119,1111122 
TCOON,ioos:station:TCOON:518:1,2015-06-04T09:12:00Z,29.5150,-94.5133,1.125,1111122 
TCOON,ioos:station:TCOON:518:1,2015-06-04T10:12:00Z,29.5150,-94.5133,1.231,1111122 
TCOON,ioos:station:TCOON:518:1,2015-06-04T11:12:00Z,29.5150,-94.5133,1.339,1111122 
TCOON,ioos:station:TCOON:518:1,2015-06-04T12:18:00Z,29.5150,-94.5133,1.438,1111122 
TCOON,ioos:station:TCOON:518:1,2015-06-04T13:12:00Z,29.5150,-94.5133,1.501,1111122 
TCOON,ioos:station:TCOON:518:1,2015-06-04T14:12:00Z,29.5150,-94.5133,1.559,1111122 
TCOON,ioos:station:TCOON:518:1,2015-06-04T15:12:00Z,29.5150,-94.5133,1.589,1111122 
TCOON,ioos:station:TCOON:518:1,2015-06-04T16:12:00Z,29.5150,-94.5133,1.602,1111122 
TCOON,ioos:station:TCOON:518:1,2015-06-04T17:12:00Z,29.5150,-94.5133,1.613,1111122 
TCOON,ioos:station:TCOON:518:1,2015-06-04T18:12:00Z,29.5150,-94.5133,1.623,1111122 
TCOON,ioos:station:TCOON:518:1,2015-06-04T19:18:00Z,29.5150,-94.5133,1.622,1111122 
TCOON,ioos:station:TCOON:518:1,2015-06-04T20:12:00Z,29.5150,-94.5133,1.607,1111122 
TCOON,ioos:station:TCOON:518:1,2015-06-04T21:12:00Z,29.5150,-94.5133,1.572,1111122 
TCOON,ioos:station:TCOON:518:1,2015-06-05T14:18:00Z,29.5150,-94.5133,1.499,1111122 
TCOON,ioos:station:TCOON:518:1,2015-06-05T15:12:00Z,29.5150,-94.5133,1.539,1111122 
TCOON,ioos:station:TCOON:518:1,2015-06-05T16:12:00Z,29.5150,-94.5133,1.571,1111122 
TCOON,ioos:station:TCOON:518:1,2015-06-05T17:12:00Z,29.5150,-94.5133,1.551,1111122 
TCOON,ioos:station:TCOON:518:1,2015-06-05T18:12:00Z,29.5150,-94.5133,1.578,1111122 
TCOON,ioos:station:TCOON:518:1,2015-06-05T19:12:00Z,29.5150,-94.5133,1.577,1111122 
TCOON,ioos:station:TCOON:518:1,2015-06-05T20:12:00Z,29.5150,-94.5133,1.565,1111122 
TCOON,ioos:station:TCOON:518:1,2015-06-05T21:12:00Z,29.5150,-94.5133,1.536,1111122 
TCOON,ioos:station:TCOON:518:1,2015-06-05T22:12:00Z,29.5150,-94.5133,1.511,1111122 
TCOON,ioos:station:TCOON:518:1,2015-06-05T23:12:00Z,29.5150,-94.5133,1.508,1111122 
TCOON,ioos:station:TCOON:518:1,2015-06-06T00:12:00Z,29.5150,-94.5133,1.489,1111122 
TCOON,ioos:station:TCOON:518:1,2015-06-06T01:12:00Z,29.5150,-94.5133,1.473,1111122 
TCOON,ioos:station:TCOON:518:1,2015-06-06T02:12:00Z,29.5150,-94.5133,1.458,1111122 
TCOON,ioos:station:TCOON:518:1,2015-06-06T03:12:00Z,29.5150,-94.5133,1.399,1111122 
TCOON,ioos:station:TCOON:518:1,2015-06-06T04:12:00Z,29.5150,-94.5133,1.324,1111122 
TCOON,ioos:station:TCOON:518:1,2015-06-06T05:12:00Z,29.5150,-94.5133,1.272,1111122 
TCOON,ioos:station:TCOON:518:1,2015-06-06T06:18:00Z,29.5150,-94.5133,1.208,1111122 
TCOON,ioos:station:TCOON:518:1,2015-06-06T07:18:00Z,29.5150,-94.5133,1.179,1111122 
TCOON,ioos:station:TCOON:518:1,2015-06-06T08:18:00Z,29.5150,-94.5133,1.151,1111122 
TCOON,ioos:station:TCOON:518:1,2015-06-06T09:30:00Z,29.5150,-94.5133,1.133,1111122 
TCOON,ioos:station:TCOON:518:1,2015-06-06T10:12:00Z,29.5150,-94.5133,1.146,1111122 
TCOON,ioos:station:TCOON:518:1,2015-06-06T11:12:00Z,29.5150,-94.5133,1.2,1111122 
TCOON,ioos:station:TCOON:518:1,2015-06-06T12:12:00Z,29.5150,-94.5133,1.268,1111122 
TCOON,ioos:station:TCOON:518:1,2015-06-06T13:12:00Z,29.5150,-94.5133,1.363,1111122 
TCOON,ioos:station:TCOON:518:1,2015-06-06T14:12:00Z,29.5150,-94.5133,1.435,1111122 
TCOON,ioos:station:TCOON:518:1,2015-06-06T15:12:00Z,29.5150,-94.5133,1.472,1111122 
TCOON,ioos:station:TCOON:518:1,2015-06-06T16:12:00Z,29.5150,-94.5133,1.537,1111122 
TCOON,ioos:station:TCOON:518:1,2015-06-06T17:12:00Z,29.5150,-94.5133,1.541,1111122 
TCOON,ioos:station:TCOON:518:1,2015-06-06T18:12:00Z,29.5150,-94.5133,1.55,1111122 
TCOON,ioos:station:TCOON:518:1,2015-06-06T19:12:00Z,29.5150,-94.5133,1.557,1111122 
TCOON,ioos:station:TCOON:518:1,2015-06-06T20:18:00Z,29.5150,-94.5133,1.56,1111122 
TCOON,ioos:station:TCOON:518:1,2015-06-06T21:18:00Z,29.5150,-94.5133,1.547,1111122 
TCOON,ioos:station:TCOON:518:1,2015-06-06T22:18:00Z,29.5150,-94.5133,1.534,1111122 
TCOON,ioos:station:TCOON:518:1,2015-06-06T23:12:00Z,29.5150,-94.5133,1.496,1111122 
TCOON,ioos:station:TCOON:518:1,2015-06-07T00:12:00Z,29.5150,-94.5133,1.465,1111122 
TCOON,ioos:station:TCOON:518:1,2015-06-07T01:12:00Z,29.5150,-94.5133,1.42,1111122 
TCOON,ioos:station:TCOON:518:1,2015-06-07T02:12:00Z,29.5150,-94.5133,1.401,1111122 
TCOON,ioos:station:TCOON:518:1,2015-06-07T03:12:00Z,29.5150,-94.5133,1.379,1111122 
TCOON,ioos:station:TCOON:518:1,2015-06-07T04:12:00Z,29.5150,-94.5133,1.34,1111122 
TCOON,ioos:station:TCOON:518:1,2015-06-07T05:12:00Z,29.5150,-94.5133,1.311,1111122 
TCOON,ioos:station:TCOON:518:1,2015-06-07T07:06:00Z,29.5150,-94.5133,1.207,1111122 
TCOON,ioos:station:TCOON:518:1,2015-06-07T08:12:00Z,29.5150,-94.5133,1.157,1111122 
TCOON,ioos:station:TCOON:518:1,2015-06-07T09:12:00Z,29.5150,-94.5133,1.074,1111122 
TCOON,ioos:station:TCOON:518:1,2015-06-07T10:12:00Z,29.5150,-94.5133,1.116,1111122 
TCOON,ioos:station:TCOON:518:1,2015-06-07T11:12:00Z,29.5150,-94.5133,1.152,1111122 
TCOON,ioos:station:TCOON:518:1,2015-06-07T12:12:00Z,29.5150,-94.5133,1.231,1111122 
TCOON,ioos:station:TCOON:518:1,2015-06-07T13:12:00Z,29.5150,-94.5133,1.294,1111122 
TCOON,ioos:station:TCOON:518:1,2015-06-07T14:12:00Z,29.5150,-94.5133,1.377,1111122 
TCOON,ioos:station:TCOON:518:1,2015-06-07T15:12:00Z,29.5150,-94.5133,1.435,1111122 
TCOON,ioos:station:TCOON:518:1,2015-06-07T16:12:00Z,29.5150,-94.5133,1.484,1111122 
TCOON,ioos:station:TCOON:518:1,2015-06-07T17:12:00Z,29.5150,-94.5133,1.507,1111122 
TCOON,ioos:station:TCOON:518:1,2015-06-07T18:12:00Z,29.5150,-94.5133,1.532,1111122 
TCOON,ioos:station:TCOON:518:1,2015-06-07T19:12:00Z,29.5150,-94.5133,1.531,1111122 
TCOON,ioos:station:TCOON:518:1,2015-06-07T20:12:00Z,29.5150,-94.5133,1.545,1111122 
TCOON,ioos:station:TCOON:518:1,2015-06-07T21:12:00Z,29.5150,-94.5133,1.538,1111122 
TCOON,ioos:station:TCOON:518:1,2015-06-07T22:12:00Z,29.5150,-94.5133,1.514,1111122 
TCOON,ioos:station:TCOON:518:1,2015-06-07T23:12:00Z,29.5150,-94.5133,1.487,1111122 
TCOON,ioos:station:TCOON:518:1,2015-06-08T00:18:00Z,29.5150,-94.5133,1.47,1111122 
TCOON,ioos:station:TCOON:518:1,2015-06-08T01:12:00Z,29.5150,-94.5133,1.455,1111122 
TCOON,ioos:station:TCOON:518:1,2015-06-08T02:12:00Z,29.5150,-94.5133,1.464,1111122 
TCOON,ioos:station:TCOON:518:1,2015-06-08T03:12:00Z,29.5150,-94.5133,1.481,1111122 
TCOON,ioos:station:TCOON:518:1,2015-06-08T04:12:00Z,29.5150,-94.5133,1.45,1111122 
TCOON,ioos:station:TCOON:518:1,2015-06-08T05:12:00Z,29.5150,-94.5133,1.405,1111122 
TCOON,ioos:station:TCOON:518:1,2015-06-08T06:18:00Z,29.5150,-94.5133,1.345,1111122 
TCOON,ioos:station:TCOON:518:1,2015-06-08T07:36:00Z,29.5150,-94.5133,1.292,1111122 
TCOON,ioos:station:TCOON:518:1,2015-06-08T08:18:00Z,29.5150,-94.5133,1.251,1111122 
TCOON,ioos:station:TCOON:518:1,2015-06-08T09:18:00Z,29.5150,-94.5133,1.216,1111122 
TCOON,ioos:station:TCOON:518:1,2015-06-08T10:12:00Z,29.5150,-94.5133,1.2,1111122 
TCOON,ioos:station:TCOON:518:1,2015-06-08T11:12:00Z,29.5150,-94.5133,1.181,1111122 
TCOON,ioos:station:TCOON:518:1,2015-06-08T12:12:00Z,29.5150,-94.5133,1.187,1111122 
TCOON,ioos:station:TCOON:518:1,2015-06-08T13:12:00Z,29.5150,-94.5133,1.262,1111122 
TCOON,ioos:station:TCOON:518:1,2015-06-08T14:12:00Z,29.5150,-94.5133,1.34,1111122 
TCOON,ioos:station:TCOON:518:1,2015-06-08T15:18:00Z,29.5150,-94.5133,1.415,1111122 
TCOON,ioos:station:TCOON:518:1,2015-06-08T16:12:00Z,29.5150,-94.5133,1.465,1111122 
TCOON,ioos:station:TCOON:518:1,2015-06-08T17:12:00Z,29.5150,-94.5133,1.514,1111122 
TCOON,ioos:station:TCOON:518:1,2015-06-08T18:12:00Z,29.5150,-94.5133,1.536,1111122 
TCOON,ioos:station:TCOON:518:1,2015-06-08T19:18:00Z,29.5150,-94.5133,1.551,1111122 
TCOON,ioos:station:TCOON:518:1,2015-06-08T20:12:00Z,29.5150,-94.5133,1.562,1111122 
TCOON,ioos:station:TCOON:518:1,2015-06-08T21:12:00Z,29.5150,-94.5133,1.523,1111122 
TCOON,ioos:station:TCOON:518:1,2015-06-08T22:24:00Z,29.5150,-94.5133,1.529,1111122 
TCOON,ioos:station:TCOON:518:1,2015-06-08T23:18:00Z,29.5150,-94.5133,1.5,1111122 
TCOON,ioos:station:TCOON:518:1,2015-06-09T00:12:00Z,29.5150,-94.5133,1.468,1111122 
TCOON,ioos:station:TCOON:518:1,2015-06-09T01:12:00Z,29.5150,-94.5133,1.438,1111122 
TCOON,ioos:station:TCOON:518:1,2015-06-09T02:12:00Z,29.5150,-94.5133,1.429,1111122 
TCOON,ioos:station:TCOON:518:1,2015-06-09T03:12:00Z,29.5150,-94.5133,1.406,1111122 
TCOON,ioos:station:TCOON:518:1,2015-06-09T04:12:00Z,29.5150,-94.5133,1.424,1111122 
TCOON,ioos:station:TCOON:518:1,2015-06-09T05:12:00Z,29.5150,-94.5133,1.446,1111122 
TCOON,ioos:station:TCOON:518:1,2015-06-09T07:06:00Z,29.5150,-94.5133,1.4,1111122 
TCOON,ioos:station:TCOON:518:1,2015-06-09T08:18:00Z,29.5150,-94.5133,1.342,1111122 
TCOON,ioos:station:TCOON:518:1,2015-06-09T09:12:00Z,29.5150,-94.5133,1.287,1111122 
TCOON,ioos:station:TCOON:518:1,2015-06-09T10:12:00Z,29.5150,-94.5133,1.257,1111122 
TCOON,ioos:station:TCOON:518:1,2015-06-09T11:18:00Z,29.5150,-94.5133,1.238,1111122 
TCOON,ioos:station:TCOON:518:1,2015-06-09T12:12:00Z,29.5150,-94.5133,1.247,1111122 
TCOON,ioos:station:TCOON:518:1,2015-06-09T13:12:00Z,29.5150,-94.5133,1.254,1111122 
TCOON,ioos:station:TCOON:518:1,2015-06-09T14:12:00Z,29.5150,-94.5133,1.293,1111122 
TCOON,ioos:station:TCOON:518:1,2015-06-09T15:18:00Z,29.5150,-94.5133,1.351,1111122 
TCOON,ioos:station:TCOON:518:1,2015-06-09T16:12:00Z,29.5150,-94.5133,1.369,1111122 
TCOON,ioos:station:TCOON:518:1,2015-06-09T17:12:00Z,29.5150,-94.5133,1.434,1111122 
TCOON,ioos:station:TCOON:518:1,2015-06-09T18:18:00Z,29.5150,-94.5133,1.463,1111122 
TCOON,ioos:station:TCOON:518:1,2015-06-09T19:12:00Z,29.5150,-94.5133,1.482,1111122 
TCOON,ioos:station:TCOON:518:1,2015-06-09T20:12:00Z,29.5150,-94.5133,1.48,1111122 
TCOON,ioos:station:TCOON:518:1,2015-06-09T21:12:00Z,29.5150,-94.5133,1.49,1111122 
TCOON,ioos:station:TCOON:518:1,2015-06-09T22:18:00Z,29.5150,-94.5133,1.474,1111122 
TCOON,ioos:station:TCOON:518:1,2015-06-09T23:24:00Z,29.5150,-94.5133,1.469,1111122 
TCOON,ioos:station:TCOON:518:1,2015-06-10T00:12:00Z,29.5150,-94.5133,1.417,1111122 
TCOON,ioos:station:TCOON:518:1,2015-06-10T01:12:00Z,29.5150,-94.5133,1.371,1111122 
TCOON,ioos:station:TCOON:518:1,2015-06-10T02:12:00Z,29.5150,-94.5133,1.355,1111122 
TCOON,ioos:station:TCOON:518:1,2015-06-10T03:12:00Z,29.5150,-94.5133,1.363,1111122 
TCOON,ioos:station:TCOON:518:1,2015-06-10T04:18:00Z,29.5150,-94.5133,1.399,1111122 
TCOON,ioos:station:TCOON:518:1,2015-06-10T05:12:00Z,29.5150,-94.5133,1.457,1111122 
TCOON,ioos:station:TCOON:518:1,2015-06-10T06:18:00Z,29.5150,-94.5133,1.555,1111122 
TCOON,ioos:station:TCOON:518:1,2015-06-10T07:24:00Z,29.5150,-94.5133,1.433,1111122 
TCOON,ioos:station:TCOON:518:1,2015-06-10T08:18:00Z,29.5150,-94.5133,1.45,1111122 
TCOON,ioos:station:TCOON:518:1,2015-06-10T09:12:00Z,29.5150,-94.5133,1.489,1111122 
TCOON,ioos:station:TCOON:518:1,2015-06-10T10:12:00Z,29.5150,-94.5133,1.444,1111122 
TCOON,ioos:station:TCOON:518:1,2015-06-10T11:12:00Z,29.5150,-94.5133,1.409,1111122 
TCOON,ioos:station:TCOON:518:1,2015-06-10T12:18:00Z,29.5150,-94.5133,1.438,1111122 
TCOON,ioos:station:TCOON:518:1,2015-06-10T13:12:00Z,29.5150,-94.5133,1.451,1111122 
TCOON,ioos:station:TCOON:518:1,2015-06-10T14:12:00Z,29.5150,-94.5133,1.416,1111122 
TCOON,ioos:station:TCOON:518:1,2015-06-10T15:18:00Z,29.5150,-94.5133,1.382,1111122 
TCOON,ioos:station:TCOON:518:1,2015-06-10T16:12:00Z,29.5150,-94.5133,1.391,1111122 
TCOON,ioos:station:TCOON:518:1,2015-06-10T17:18:00Z,29.5150,-94.5133,1.429,1111122 
TCOON,ioos:station:TCOON:518:1,2015-06-10T18:18:00Z,29.5150,-94.5133,1.495,1111122 
TCOON,ioos:station:TCOON:518:1,2015-06-10T19:18:00Z,29.5150,-94.5133,1.513,1111122 
TCOON,ioos:station:TCOON:518:1,2015-06-10T20:18:00Z,29.5150,-94.5133,1.539,1111122 
TCOON,ioos:station:TCOON:518:1,2015-06-10T21:18:00Z,29.5150,-94.5133,1.551,1111122 
TCOON,ioos:station:TCOON:518:1,2015-06-10T22:24:00Z,29.5150,-94.5133,1.477,1111122 
TCOON,ioos:station:TCOON:518:1,2015-06-10T23:18:00Z,29.5150,-94.5133,1.4,1111122 
TCOON,ioos:station:TCOON:518:1,2015-06-11T00:12:00Z,29.5150,-94.5133,1.371,1111122 
TCOON,ioos:station:TCOON:518:1,2015-06-11T01:12:00Z,29.5150,-94.5133,1.352,1111122 
TCOON,ioos:station:TCOON:518:1,2015-06-11T02:12:00Z,29.5150,-94.5133,1.321,1111122 
TCOON,ioos:station:TCOON:518:1,2015-06-11T03:12:00Z,29.5150,-94.5133,1.309,1111122 
TCOON,ioos:station:TCOON:518:1,2015-06-11T04:12:00Z,29.5150,-94.5133,1.3,1111122 
TCOON,ioos:station:TCOON:518:1,2015-06-11T05:12:00Z,29.5150,-94.5133,1.348,1111122 
TCOON,ioos:station:TCOON:518:1,2015-06-11T07:12:00Z,29.5150,-94.5133,1.445,1111122 
TCOON,ioos:station:TCOON:518:1,2015-06-11T08:12:00Z,29.5150,-94.5133,1.496,1111122 
TCOON,ioos:station:TCOON:518:1,2015-06-11T09:12:00Z,29.5150,-94.5133,1.532,1111122 
TCOON,ioos:station:TCOON:518:1,2015-06-11T10:12:00Z,29.5150,-94.5133,1.507,1111122 
TCOON,ioos:station:TCOON:518:1,2015-06-11T11:12:00Z,29.5150,-94.5133,1.496,1111122 
TCOON,ioos:station:TCOON:518:1,2015-06-11T12:12:00Z,29.5150,-94.5133,1.476,1111122 
TCOON,ioos:station:TCOON:518:1,2015-06-11T13:12:00Z,29.5150,-94.5133,1.494,1111122 
TCOON,ioos:station:TCOON:518:1,2015-06-11T14:12:00Z,29.5150,-94.5133,1.468,1111122 
TCOON,ioos:station:TCOON:518:1,2015-06-11T15:12:00Z,29.5150,-94.5133,1.443,1111122 
TCOON,ioos:station:TCOON:518:1,2015-06-11T16:12:00Z,29.5150,-94.5133,1.435,1111122 
TCOON,ioos:station:TCOON:518:1,2015-06-11T17:18:00Z,29.5150,-94.5133,1.467,1111122 
TCOON,ioos:station:TCOON:518:1,2015-06-11T18:18:00Z,29.5150,-94.5133,1.499,1111122 
TCOON,ioos:station:TCOON:518:1,2015-06-11T19:18:00Z,29.5150,-94.5133,1.509,1111122 
TCOON,ioos:station:TCOON:518:1,2015-06-11T20:18:00Z,29.5150,-94.5133,1.512,1111122 
TCOON,ioos:station:TCOON:518:1,2015-06-11T21:12:00Z,29.5150,-94.5133,1.487,1111122 
TCOON,ioos:station:TCOON:518:1,2015-06-11T22:18:00Z,29.5150,-94.5133,1.466,1111122 
TCOON,ioos:station:TCOON:518:1,2015-06-11T23:18:00Z,29.5150,-94.5133,1.428,1111122 
TCOON,ioos:station:TCOON:518:1,2015-06-12T00:12:00Z,29.5150,-94.5133,1.362,1111122 
TCOON,ioos:station:TCOON:518:1,2015-06-12T01:12:00Z,29.5150,-94.5133,1.313,1111122 
TCOON,ioos:station:TCOON:518:1,2015-06-12T02:12:00Z,29.5150,-94.5133,1.266,1111122 
TCOON,ioos:station:TCOON:518:1,2015-06-12T03:12:00Z,29.5150,-94.5133,1.252,1111122 
TCOON,ioos:station:TCOON:518:1,2015-06-12T04:12:00Z,29.5150,-94.5133,1.259,1111122 
TCOON,ioos:station:TCOON:518:1,2015-06-12T05:12:00Z,29.5150,-94.5133,1.3,1111122 
TCOON,ioos:station:TCOON:518:1,2015-06-12T07:12:00Z,29.5150,-94.5133,1.425,1111122 
TCOON,ioos:station:TCOON:518:1,2015-06-12T08:18:00Z,29.5150,-94.5133,1.496,1111122 
TCOON,ioos:station:TCOON:518:1,2015-06-12T09:12:00Z,29.5150,-94.5133,1.601,1111122 
TCOON,ioos:station:TCOON:518:1,2015-06-12T10:12:00Z,29.5150,-94.5133,1.634,1111122 
TCOON,ioos:station:TCOON:518:1,2015-06-12T11:12:00Z,29.5150,-94.5133,1.67,1111122 
TCOON,ioos:station:TCOON:518:1,2015-06-12T12:12:00Z,29.5150,-94.5133,1.655,1111122 
TCOON,ioos:station:TCOON:518:1,2015-06-12T13:12:00Z,29.5150,-94.5133,1.668,1111122 
TCOON,ioos:station:TCOON:518:1,2015-06-12T14:12:00Z,29.5150,-94.5133,1.636,1111122 
TCOON,ioos:station:TCOON:518:1,2015-06-12T15:18:00Z,29.5150,-94.5133,1.57,1111122 
TCOON,ioos:station:TCOON:518:1,2015-06-12T16:12:00Z,29.5150,-94.5133,1.562,1111122 
TCOON,ioos:station:TCOON:518:1,2015-06-12T17:18:00Z,29.5150,-94.5133,1.544,1111122 
TCOON,ioos:station:TCOON:518:1,2015-06-12T18:12:00Z,29.5150,-94.5133,1.491,1111122 
TCOON,ioos:station:TCOON:518:1,2015-06-12T19:12:00Z,29.5150,-94.5133,1.521,1111122 
TCOON,ioos:station:TCOON:518:1,2015-06-12T20:12:00Z,29.5150,-94.5133,1.575,1111122 
TCOON,ioos:station:TCOON:518:1,2015-06-12T21:12:00Z,29.5150,-94.5133,1.6,1111122 
TCOON,ioos:station:TCOON:518:1,2015-06-12T22:18:00Z,29.5150,-94.5133,1.618,1111122 
TCOON,ioos:station:TCOON:518:1,2015-06-12T23:18:00Z,29.5150,-94.5133,1.587,1111122 
TCOON,ioos:station:TCOON:518:1,2015-06-13T00:12:00Z,29.5150,-94.5133,1.5,1111122 
TCOON,ioos:station:TCOON:518:1,2015-06-13T01:12:00Z,29.5150,-94.5133,1.402,1111122 
TCOON,ioos:station:TCOON:518:1,2015-06-13T02:12:00Z,29.5150,-94.5133,1.342,1111122 
TCOON,ioos:station:TCOON:518:1,2015-06-13T03:12:00Z,29.5150,-94.5133,1.284,1111122 
TCOON,ioos:station:TCOON:518:1,2015-06-13T04:12:00Z,29.5150,-94.5133,1.263,1111122 
TCOON,ioos:station:TCOON:518:1,2015-06-13T05:12:00Z,29.5150,-94.5133,1.302,1111122 
TCOON,ioos:station:TCOON:518:1,2015-06-13T06:18:00Z,29.5150,-94.5133,1.393,1111122 
TCOON,ioos:station:TCOON:518:1,2015-06-13T07:18:00Z,29.5150,-94.5133,1.473,1111122 
TCOON,ioos:station:TCOON:518:1,2015-06-13T08:18:00Z,29.5150,-94.5133,1.656,1111122 
TCOON,ioos:station:TCOON:518:1,2015-06-13T09:12:00Z,29.5150,-94.5133,1.683,1111122 
TCOON,ioos:station:TCOON:518:1,2015-06-13T10:12:00Z,29.5150,-94.5133,1.687,1111122 
TCOON,ioos:station:TCOON:518:1,2015-06-13T11:12:00Z,29.5150,-94.5133,1.686,1111122 
TCOON,ioos:station:TCOON:518:1,2015-06-13T12:12:00Z,29.5150,-94.5133,1.684,1111122 
TCOON,ioos:station:TCOON:518:1,2015-06-13T13:12:00Z,29.5150,-94.5133,1.736,1111122 
TCOON,ioos:station:TCOON:518:1,2015-06-13T14:12:00Z,29.5150,-94.5133,1.823,1111122 
TCOON,ioos:station:TCOON:518:1,2015-06-13T15:12:00Z,29.5150,-94.5133,1.811,1111122 
TCOON,ioos:station:TCOON:518:1,2015-06-13T16:12:00Z,29.5150,-94.5133,1.804,1111122 
TCOON,ioos:station:TCOON:518:1,2015-06-13T17:18:00Z,29.5150,-94.5133,1.963,1111122 
TCOON,ioos:station:TCOON:518:1,2015-06-13T18:12:00Z,29.5150,-94.5133,1.842,1111122 
TCOON,ioos:station:TCOON:518:1,2015-06-13T19:18:00Z,29.5150,-94.5133,1.645,1111122 